TimeEDT,TemperatureF,Dew PointF,Humidity,Sea Level PressureIn,VisibilityMPH,Wind Direction,Wind SpeedMPH,Gust SpeedMPH,PrecipitationIn,Events,Conditions,WindDirDegrees,DateUTC
12:12 AM,55.0,46.4,73,30.06,10.0,NNE,3.5,-,N/A,,Mostly Cloudy,30,2013-06-06 04:12:00
12:33 AM,55.4,47.5,75,30.06,10.0,NE,4.6,-,N/A,,Overcast,50,2013-06-06 04:33:00
12:52 AM,55.9,49.1,78,30.05,10.0,NE,4.6,-,N/A,,Mostly Cloudy,50,2013-06-06 04:52:00
1:12 AM,56.5,49.5,77,30.05,10.0,NE,4.6,-,N/A,,Overcast,50,2013-06-06 05:12:00
1:32 AM,57.2,50.0,77,30.05,10.0,NE,4.6,-,N/A,,Overcast,50,2013-06-06 05:32:00
1:52 AM,56.8,50.2,78,30.05,10.0,NE,4.6,-,N/A,,Overcast,40,2013-06-06 05:52:00
2:12 AM,57.2,50.5,78,30.04,10.0,NE,4.6,-,N/A,,Overcast,50,2013-06-06 06:12:00
2:33 AM,57.4,50.2,77,30.04,10.0,ENE,4.6,-,N/A,,Overcast,60,2013-06-06 06:33:00
2:52 AM,57.6,50.0,76,30.04,10.0,NE,6.9,-,N/A,,Overcast,50,2013-06-06 06:52:00
3:12 AM,57.2,49.5,75,30.03,10.0,NE,4.6,-,N/A,,Overcast,50,2013-06-06 07:12:00
3:33 AM,56.7,49.1,76,30.01,10.0,ENE,6.9,-,N/A,,Overcast,70,2013-06-06 07:33:00
3:52 AM,56.8,48.9,75,30.00,10.0,NE,6.9,-,N/A,,Overcast,50,2013-06-06 07:52:00
4:12 AM,57.2,48.7,73,29.99,10.0,ENE,5.8,-,N/A,,Overcast,60,2013-06-06 08:12:00
4:33 AM,57.0,48.6,73,29.99,10.0,ENE,5.8,-,N/A,,Overcast,60,2013-06-06 08:33:00
4:52 AM,57.2,48.6,73,29.99,10.0,NE,5.8,-,N/A,,Overcast,50,2013-06-06 08:52:00
5:12 AM,57.2,48.0,71,29.99,10.0,ENE,5.8,-,N/A,,Overcast,70,2013-06-06 09:12:00
5:32 AM,57.4,48.0,71,29.99,10.0,ENE,5.8,-,N/A,,Overcast,60,2013-06-06 09:32:00
5:52 AM,56.7,48.6,74,29.99,10.0,NNE,4.6,-,N/A,,Overcast,30,2013-06-06 09:52:00
6:12 AM,55.6,50.0,81,29.99,10.0,NNE,4.6,-,N/A,,Overcast,30,2013-06-06 10:12:00
6:32 AM,55.0,49.3,81,29.98,10.0,NE,4.6,-,N/A,,Overcast,40,2013-06-06 10:32:00
6:52 AM,54.5,49.1,82,29.98,10.0,NE,5.8,-,N/A,,Overcast,50,2013-06-06 10:52:00
7:13 AM,54.5,48.6,80,29.98,10.0,NNE,3.5,-,N/A,,Overcast,30,2013-06-06 11:13:00
7:32 AM,54.5,48.2,79,29.98,10.0,NNE,3.5,-,N/A,,Overcast,20,2013-06-06 11:32:00
7:52 AM,54.5,48.2,79,29.97,10.0,NNE,5.8,-,N/A,,Overcast,30,2013-06-06 11:52:00
8:13 AM,54.5,48.7,81,29.98,10.0,North,4.6,-,N/A,Rain,Light Rain,10,2013-06-06 12:13:00
8:32 AM,54.9,49.3,81,29.97,10.0,NNE,4.6,-,N/A,,Light Drizzle,30,2013-06-06 12:32:00
8:52 AM,56.3,49.8,79,29.96,10.0,NE,5.8,-,N/A,,Clear,40,2013-06-06 12:52:00
9:13 AM,57.6,50.2,76,29.96,10.0,NE,6.9,-,N/A,,Scattered Clouds,40,2013-06-06 13:13:00
9:32 AM,58.3,49.5,72,29.96,10.0,NE,9.2,-,N/A,,Scattered Clouds,50,2013-06-06 13:32:00
9:52 AM,58.5,48.9,71,29.97,10.0,NE,5.8,-,N/A,,Clear,50,2013-06-06 13:52:00
10:13 AM,61.0,49.6,66,29.96,10.0,NE,5.8,-,N/A,,Clear,50,2013-06-06 14:13:00
10:32 AM,62.2,48.2,60,29.96,10.0,ENE,9.2,-,N/A,,Scattered Clouds,70,2013-06-06 14:32:00
10:52 AM,61.2,48.4,63,29.96,10.0,NNE,6.9,-,N/A,,Clear,20,2013-06-06 14:52:00
11:13 AM,60.4,47.1,61,29.96,10.0,NE,6.9,-,N/A,,Clear,40,2013-06-06 15:13:00
11:32 AM,61.7,48.0,61,29.97,10.0,NE,9.2,-,N/A,,Clear,40,2013-06-06 15:32:00
11:53 AM,61.3,46.2,58,29.97,10.0,ENE,10.4,-,N/A,,Clear,60,2013-06-06 15:53:00
12:12 PM,62.6,46.4,55,29.97,10.0,ENE,11.5,-,N/A,,Clear,70,2013-06-06 16:12:00
12:32 PM,62.1,46.8,57,29.97,10.0,NE,10.4,-,N/A,,Clear,50,2013-06-06 16:32:00
12:53 PM,62.6,47.1,57,29.96,10.0,ENE,12.7,-,N/A,,Light Drizzle,70,2013-06-06 16:53:00
1:12 PM,63.1,46.9,55,29.95,10.0,NE,10.4,-,N/A,,Mostly Cloudy,50,2013-06-06 17:12:00
1:32 PM,63.5,44.8,51,29.95,10.0,ENE,11.5,-,N/A,,Scattered Clouds,60,2013-06-06 17:32:00
1:53 PM,63.3,45.9,53,29.95,10.0,East,15.0,19.6,N/A,,Clear,80,2013-06-06 17:53:00
2:12 PM,63.5,46.2,53,29.95,10.0,ENE,13.8,20.7,N/A,,Clear,60,2013-06-06 18:12:00
2:33 PM,64.8,44.4,48,29.95,10.0,ENE,11.5,20.7,N/A,,Clear,60,2013-06-06 18:33:00
2:52 PM,63.5,44.1,49,29.95,10.0,NE,15.0,21.9,N/A,,Clear,50,2013-06-06 18:52:00
3:12 PM,63.1,43.0,48,29.95,10.0,NE,12.7,20.7,N/A,,Clear,40,2013-06-06 19:12:00
3:33 PM,63.1,43.9,49,29.94,10.0,ENE,13.8,21.9,N/A,,Clear,60,2013-06-06 19:33:00
3:52 PM,64.0,45.5,51,29.94,10.0,ENE,12.7,23.0,N/A,,Scattered Clouds,60,2013-06-06 19:52:00
4:12 PM,64.0,46.4,53,29.94,10.0,ENE,15.0,20.7,N/A,,Mostly Cloudy,70,2013-06-06 20:12:00
4:33 PM,63.1,47.7,57,29.93,10.0,NE,11.5,17.3,N/A,,Overcast,50,2013-06-06 20:33:00
4:52 PM,63.0,46.2,54,29.94,10.0,ENE,8.1,18.4,N/A,,Overcast,60,2013-06-06 20:52:00
5:13 PM,62.1,45.9,55,29.94,10.0,NE,12.7,17.3,N/A,,Overcast,50,2013-06-06 21:13:00
5:32 PM,61.7,46.0,56,29.94,10.0,NE,6.9,-,N/A,,Overcast,40,2013-06-06 21:32:00
5:52 PM,61.3,46.2,58,29.94,10.0,ENE,9.2,-,N/A,,Overcast,60,2013-06-06 21:52:00
6:13 PM,61.0,46.4,59,29.94,10.0,ENE,8.1,16.1,N/A,,Overcast,60,2013-06-06 22:13:00
6:29 PM,61.3,46.9,59,29.94,10.0,ENE,5.8,-,N/A,,Overcast,70,2013-06-06 22:29:00
6:56 PM,62.6,46.4,55,29.94,10.0,ENE,10.4,18.4,N/A,,Overcast,60,2013-06-06 22:56:00
7:16 PM,62.6,48.2,59,29.94,10.0,ENE,9.2,-,N/A,,Overcast,60,2013-06-06 23:16:00
7:30 PM,61.3,47.5,60,29.94,10.0,ENE,9.2,-,N/A,,Overcast,70,2013-06-06 23:30:00
7:33 PM,61.3,47.3,60,29.94,10.0,ENE,10.4,-,N/A,,Overcast,60,2013-06-06 23:33:00
7:53 PM,60.6,46.8,60,29.94,10.0,ENE,8.1,-,N/A,,Overcast,60,2013-06-06 23:53:00
8:12 PM,59.9,46.6,61,29.94,10.0,ENE,10.4,-,N/A,,Overcast,60,2013-06-07 00:12:00
8:33 PM,59.2,47.1,64,29.95,10.0,NE,9.2,-,N/A,,Overcast,50,2013-06-07 00:33:00
8:53 PM,58.6,46.9,65,29.94,10.0,NE,12.7,17.3,N/A,,Mostly Cloudy,50,2013-06-07 00:53:00
9:12 PM,57.7,47.3,68,29.95,10.0,NE,8.1,-,N/A,,Clear,50,2013-06-07 01:12:00
9:33 PM,57.2,47.3,69,29.95,10.0,NE,6.9,-,N/A,,Clear,40,2013-06-07 01:33:00
9:53 PM,56.5,47.5,72,29.94,10.0,NNE,5.8,-,N/A,,Clear,30,2013-06-07 01:53:00
10:12 PM,55.9,47.7,74,29.94,10.0,North,3.5,-,N/A,,Clear,10,2013-06-07 02:12:00
10:33 PM,54.9,47.7,77,29.95,10.0,Calm,Calm,-,N/A,,Clear,0,2013-06-07 02:33:00
10:53 PM,54.0,47.5,79,29.94,10.0,North,4.6,-,N/A,,Clear,360,2013-06-07 02:53:00
11:13 PM,53.6,47.3,79,29.95,10.0,North,4.6,-,N/A,,Clear,360,2013-06-07 03:13:00
11:33 PM,52.7,47.3,82,29.94,10.0,North,4.6,-,N/A,,Clear,360,2013-06-07 03:33:00
11:52 PM,51.6,47.1,85,29.94,10.0,North,3.5,-,N/A,,Clear,360,2013-06-07 03:52:00